RYR617R LPPT-EPMO

Flight info

Callsign RYR617R
Flight time 3h 38m
Altitude 36000
Route N0446F360 IXIDA DCT PINOX DCT RIVRO DCT TOSDI DCT ZMR DCT NUBLO DCT RONSI DCT DELOG DCT PEXOD DCT DIDIG DCT ARDOD UN873 OBATO UM163 TSU UN858 OQQAL DCT RANUX DCT VALEK DCT LIPNI DCT LIMGO DCT MASEK DCT POZUM DCT OBOKU DCT DOSIX
Aircraft B738/M-SADFGHIJ7LP2RWXY/SB1D1G1

Departure

Time 2026-04-25 10:36
Airport Lisbon Humberto Delgado Airport (LPPT)

Arrival

Time 2026-04-25 14:14
Airport Warsaw Modlin Airport (EPMO)
Time Latitude Longitude Altitude Speed Heading
2026-04-25 09:47 38.76452 -9.13881 347 ft 0 kts 168°
2026-04-25 10:26 38.76464 -9.13884 357 ft 4 kts 171°
2026-04-25 10:26 38.76491 -9.13886 355 ft 4 kts 187°
2026-04-25 10:26 38.76514 -9.13876 353 ft 4 kts 234°
2026-04-25 10:27 38.76519 -9.13865 350 ft 0 kts 258°
2026-04-25 10:32 38.76519 -9.13866 350 ft 1 kts 258°
2026-04-25 10:32 38.76516 -9.13897 354 ft 6 kts 275°
2026-04-25 10:32 38.76556 -9.13943 346 ft 9 kts 325°
2026-04-25 10:32 38.76568 -9.14018 348 ft 9 kts 258°
2026-04-25 10:33 38.76557 -9.14086 350 ft 7 kts 261°
2026-04-25 10:33 38.76566 -9.14152 336 ft 8 kts 291°
2026-04-25 10:33 38.76588 -9.14220 335 ft 8 kts 293°
2026-04-25 10:33 38.76599 -9.14254 337 ft 2 kts 292°
2026-04-25 10:34 38.76608 -9.14279 333 ft 4 kts 294°
2026-04-25 10:34 38.76621 -9.14318 334 ft 6 kts 294°
2026-04-25 10:34 38.76643 -9.14367 333 ft 8 kts 319°
2026-04-25 10:34 38.76692 -9.14364 335 ft 7 kts 22°
2026-04-25 10:35 38.76737 -9.14339 335 ft 7 kts 23°
2026-04-25 10:35 38.76856 -9.14275 346 ft 46 kts 22°
2026-04-25 10:35 38.77366 -9.14003 361 ft 111 kts 22°
2026-04-25 10:35 38.78255 -9.13530 385 ft 162 kts 21°
2026-04-25 10:36 38.79315 -9.12909 943 ft 171 kts 24°
2026-04-25 10:36 38.80377 -9.12212 1747 ft 168 kts 26°
2026-04-25 10:36 38.81390 -9.11524 2596 ft 168 kts 27°
2026-04-25 10:36 38.82523 -9.10794 2942 ft 197 kts 28°
2026-04-25 10:37 38.83780 -9.09885 3291 ft 216 kts 39°
2026-04-25 10:37 38.84858 -9.08512 3835 ft 225 kts 47°
2026-04-25 10:37 38.86016 -9.06957 4081 ft 254 kts 47°
2026-04-25 10:37 38.87258 -9.05302 4845 ft 260 kts 47°
2026-04-25 10:38 38.88521 -9.03627 5668 ft 263 kts 47°
2026-04-25 10:38 38.89808 -9.01932 6440 ft 268 kts 47°
2026-04-25 10:38 38.91120 -9.00209 7221 ft 271 kts 47°
2026-04-25 10:38 38.92442 -8.98477 8034 ft 273 kts 47°
2026-04-25 10:39 38.93782 -8.96722 8784 ft 277 kts 47°
2026-04-25 10:39 38.95141 -8.94943 9583 ft 280 kts 47°
2026-04-25 10:39 38.96514 -8.93147 10314 ft 284 kts 47°
2026-04-25 10:39 38.97946 -8.91271 10592 ft 306 kts 46°
2026-04-25 10:40 38.99493 -8.89245 10793 ft 328 kts 46°
2026-04-25 10:40 39.01123 -8.87109 11224 ft 340 kts 46°
2026-04-25 10:40 39.02792 -8.84924 11877 ft 344 kts 46°
2026-04-25 10:40 39.03929 -8.83437 12388 ft 346 kts 46°
2026-04-25 10:41 39.06176 -8.80493 13313 ft 350 kts 46°
2026-04-25 10:41 39.07890 -8.78248 13992 ft 354 kts 46°
2026-04-25 10:41 39.09622 -8.75976 14611 ft 357 kts 46°
2026-04-25 10:41 39.11365 -8.73686 15242 ft 360 kts 45°
2026-04-25 10:42 39.13125 -8.71371 15879 ft 363 kts 45°
2026-04-25 10:42 39.14903 -8.69032 16463 ft 367 kts 45°
2026-04-25 10:42 39.16696 -8.66670 17049 ft 371 kts 45°
2026-04-25 10:42 39.18512 -8.64278 17630 ft 375 kts 45°
2026-04-25 10:43 39.20341 -8.61865 18227 ft 378 kts 45°
2026-04-25 10:43 39.22191 -8.59423 18758 ft 382 kts 45°
2026-04-25 10:43 39.24053 -8.56964 19292 ft 384 kts 45°
2026-04-25 10:43 39.25923 -8.54492 19835 ft 386 kts 45°
2026-04-25 10:44 39.27808 -8.52007 20363 ft 389 kts 44°
2026-04-25 10:44 39.29741 -8.49542 20866 ft 392 kts 43°
2026-04-25 10:44 39.31065 -8.47882 21202 ft 394 kts 43°
2026-04-25 10:44 39.33684 -8.44617 21865 ft 397 kts 43°
2026-04-25 10:45 39.35678 -8.42129 22358 ft 400 kts 43°
2026-04-25 10:45 39.37682 -8.39622 22844 ft 402 kts 43°
2026-04-25 10:45 39.39693 -8.37096 23327 ft 405 kts 43°
2026-04-25 10:45 39.41717 -8.34548 23776 ft 407 kts 43°
2026-04-25 10:46 39.43758 -8.31973 24059 ft 413 kts 43°
2026-04-25 10:46 39.45825 -8.29362 24364 ft 418 kts 43°
2026-04-25 10:46 39.47229 -8.27586 24658 ft 418 kts 43°
2026-04-25 10:46 39.49309 -8.24951 25108 ft 418 kts 43°
2026-04-25 10:47 39.51389 -8.22314 25510 ft 420 kts 43°
2026-04-25 10:47 39.53479 -8.19662 25910 ft 421 kts 43°
2026-04-25 10:47 39.55576 -8.17000 26288 ft 423 kts 43°
2026-04-25 10:47 39.57680 -8.14326 26642 ft 425 kts 43°
2026-04-25 10:48 39.59794 -8.11638 26975 ft 427 kts 43°
2026-04-25 10:48 39.61918 -8.08934 27320 ft 429 kts 43°
2026-04-25 10:48 39.64055 -8.06211 27659 ft 431 kts 43°
2026-04-25 10:48 39.66198 -8.03478 27991 ft 433 kts 43°
2026-04-25 10:49 39.68350 -8.00730 28320 ft 435 kts 43°
2026-04-25 10:49 39.70485 -7.98003 28631 ft 437 kts 43°
2026-04-25 10:49 39.72685 -7.95189 28948 ft 439 kts 43°
2026-04-25 10:49 39.74861 -7.92404 29246 ft 441 kts 43°
2026-04-25 10:50 39.77054 -7.89594 29560 ft 443 kts 43°
2026-04-25 10:50 39.79213 -7.86824 29924 ft 442 kts 43°
2026-04-25 10:50 39.81428 -7.83980 30352 ft 440 kts 43°
2026-04-25 10:50 39.83599 -7.81189 30764 ft 438 kts 43°
2026-04-25 10:51 39.85757 -7.78413 31122 ft 436 kts 43°
2026-04-25 10:51 39.87913 -7.75636 31453 ft 435 kts 42°
2026-04-25 10:51 39.90064 -7.72866 31801 ft 434 kts 42°
2026-04-25 10:51 39.92204 -7.70105 32157 ft 433 kts 42°
2026-04-25 10:52 39.94342 -7.67345 32491 ft 432 kts 42°
2026-04-25 10:52 39.96469 -7.64597 32816 ft 430 kts 42°
2026-04-25 10:52 39.98591 -7.61852 33137 ft 430 kts 42°
2026-04-25 10:52 40.00707 -7.59113 33463 ft 429 kts 43°
2026-04-25 10:53 40.02830 -7.56363 33657 ft 431 kts 43°
2026-04-25 10:53 40.04962 -7.53599 33861 ft 432 kts 43°
2026-04-25 10:53 40.07089 -7.50837 34206 ft 430 kts 43°
2026-04-25 10:53 40.09202 -7.48091 34500 ft 428 kts 43°
2026-04-25 10:54 40.11312 -7.45346 34685 ft 429 kts 43°
2026-04-25 10:54 40.15556 -7.39819 35041 ft 431 kts 43°
2026-04-25 10:54 40.17681 -7.37048 35278 ft 431 kts 43°
2026-04-25 10:55 40.19800 -7.34281 35486 ft 431 kts 43°
2026-04-25 10:55 40.21892 -7.31548 35660 ft 431 kts 43°
2026-04-25 10:55 40.24016 -7.28770 35847 ft 432 kts 43°
2026-04-25 10:55 40.26166 -7.25955 36050 ft 432 kts 43°
2026-04-25 10:56 40.28270 -7.23199 36059 ft 435 kts 43°
2026-04-25 10:56 40.32555 -7.17577 36067 ft 435 kts 43°
2026-04-25 10:57 40.36839 -7.11943 36071 ft 432 kts 43°
2026-04-25 10:57 40.41063 -7.06378 36076 ft 429 kts 43°
2026-04-25 10:58 40.45265 -7.00832 36079 ft 428 kts 43°
2026-04-25 10:58 40.49453 -6.95295 36078 ft 427 kts 44°
2026-04-25 10:59 40.53615 -6.89782 36092 ft 428 kts 44°
2026-04-25 10:59 40.57812 -6.84212 36089 ft 430 kts 44°
2026-04-25 11:00 40.62027 -6.78608 36084 ft 432 kts 44°
2026-04-25 11:00 40.66252 -6.72979 36089 ft 433 kts 44°
2026-04-25 11:01 40.70501 -6.67307 36090 ft 435 kts 44°
2026-04-25 11:01 40.74761 -6.61611 36086 ft 437 kts 44°
2026-04-25 11:02 40.78946 -6.56002 36084 ft 438 kts 44°
2026-04-25 11:02 40.83139 -6.50372 36090 ft 439 kts 44°
2026-04-25 11:03 40.87414 -6.44621 36088 ft 439 kts 44°
2026-04-25 11:03 40.91690 -6.38858 36097 ft 439 kts 44°
2026-04-25 11:04 40.95956 -6.33096 36099 ft 438 kts 44°
2026-04-25 11:04 41.00249 -6.27372 36096 ft 438 kts 42°
2026-04-25 11:05 41.04753 -6.21967 36101 ft 437 kts 40°
2026-04-25 11:05 41.09301 -6.16638 36102 ft 436 kts 40°
2026-04-25 11:06 41.13822 -6.11281 36108 ft 436 kts 40°
2026-04-25 11:06 41.18327 -6.05893 36102 ft 436 kts 41°
2026-04-25 11:07 41.22830 -6.00488 36114 ft 437 kts 41°
2026-04-25 11:07 41.27350 -5.95049 36120 ft 440 kts 41°
2026-04-25 11:08 41.31896 -5.89570 36127 ft 442 kts 41°
2026-04-25 11:08 41.36465 -5.84054 36125 ft 444 kts 41°
2026-04-25 11:09 41.41053 -5.78502 36127 ft 446 kts 41°
2026-04-25 11:09 41.45653 -5.72926 36128 ft 447 kts 41°
2026-04-25 11:10 41.50223 -5.67378 36118 ft 448 kts 42°
2026-04-25 11:10 41.55279 -5.62554 36123 ft 448 kts 24°
2026-04-25 11:11 41.61018 -5.59315 36128 ft 448 kts 21°
2026-04-25 11:11 41.66793 -5.56162 36133 ft 449 kts 21°
2026-04-25 11:12 41.72567 -5.52951 36122 ft 449 kts 22°
2026-04-25 11:12 41.78322 -5.49701 36127 ft 449 kts 22°
2026-04-25 11:13 41.84074 -5.46434 36129 ft 448 kts 22°
2026-04-25 11:13 41.89811 -5.43171 36126 ft 447 kts 22°
2026-04-25 11:14 41.95536 -5.39909 36131 ft 446 kts 21°
2026-04-25 11:14 42.01251 -5.36649 36130 ft 446 kts 21°
2026-04-25 11:15 42.06951 -5.33390 36128 ft 445 kts 21°
2026-04-25 11:15 42.12644 -5.30131 36133 ft 445 kts 22°
2026-04-25 11:16 42.21198 -5.25218 36138 ft 446 kts 22°
2026-04-25 11:16 42.26920 -5.21924 36142 ft 448 kts 22°
2026-04-25 11:17 42.32658 -5.18614 36146 ft 449 kts 22°
2026-04-25 11:17 42.38375 -5.15309 36139 ft 450 kts 22°
2026-04-25 11:18 42.44166 -5.11954 36136 ft 450 kts 22°
2026-04-25 11:18 42.49882 -5.08638 36134 ft 450 kts 22°
2026-04-25 11:19 42.55660 -5.05279 36138 ft 448 kts 22°
2026-04-25 11:19 42.61344 -5.01966 36132 ft 446 kts 22°
2026-04-25 11:20 42.67034 -4.98644 36132 ft 444 kts 22°
2026-04-25 11:20 42.72700 -4.95330 36146 ft 442 kts 22°
2026-04-25 11:21 42.78359 -4.92019 36152 ft 444 kts 22°
2026-04-25 11:21 42.84090 -4.88652 36159 ft 452 kts 22°
2026-04-25 11:22 42.88941 -4.85795 36163 ft 454 kts 22°
2026-04-25 11:22 42.95693 -4.81811 36157 ft 452 kts 22°
2026-04-25 11:23 43.01394 -4.78440 36159 ft 443 kts 22°
2026-04-25 11:23 43.07055 -4.75086 36167 ft 444 kts 22°
2026-04-25 11:24 43.12720 -4.71725 36186 ft 444 kts 22°
2026-04-25 11:24 43.18391 -4.68353 36193 ft 444 kts 22°
2026-04-25 11:25 43.24062 -4.64974 36190 ft 444 kts 22°
2026-04-25 11:25 43.29730 -4.61588 36201 ft 444 kts 22°
2026-04-25 11:26 43.35397 -4.58197 36212 ft 444 kts 22°
2026-04-25 11:26 43.41066 -4.54799 36205 ft 444 kts 22°
2026-04-25 11:27 43.46778 -4.51366 36213 ft 445 kts 22°
2026-04-25 11:27 43.50532 -4.49107 36212 ft 445 kts 22°
2026-04-25 11:28 43.57175 -4.45103 36225 ft 446 kts 22°
2026-04-25 11:28 43.62874 -4.41663 36210 ft 447 kts 22°
2026-04-25 11:29 43.68567 -4.38214 36203 ft 447 kts 22°
2026-04-25 11:29 43.74262 -4.34757 36202 ft 447 kts 22°
2026-04-25 11:30 43.79946 -4.31300 36205 ft 446 kts 22°
2026-04-25 11:30 43.85623 -4.27840 36198 ft 445 kts 22°
2026-04-25 11:31 43.91279 -4.24386 36196 ft 444 kts 22°
2026-04-25 11:31 43.96924 -4.20932 36202 ft 443 kts 22°
2026-04-25 11:32 44.02562 -4.17474 36194 ft 442 kts 22°
2026-04-25 11:32 44.08181 -4.14022 36196 ft 441 kts 22°
2026-04-25 11:33 44.13796 -4.10564 36192 ft 441 kts 22°
2026-04-25 11:33 44.19399 -4.07106 36197 ft 441 kts 22°
2026-04-25 11:34 44.25004 -4.03640 36188 ft 441 kts 22°
2026-04-25 11:34 44.30612 -4.00166 36188 ft 441 kts 22°
2026-04-25 11:35 44.35986 -3.96034 36203 ft 442 kts 33°
2026-04-25 11:35 44.40999 -3.91119 36188 ft 443 kts 34°
2026-04-25 11:36 44.46041 -3.86134 36185 ft 444 kts 33°
2026-04-25 11:36 44.51111 -3.81185 36183 ft 444 kts 33°
2026-04-25 11:37 44.56194 -3.76253 36190 ft 445 kts 33°
2026-04-25 11:37 44.61291 -3.71306 36186 ft 446 kts 33°
2026-04-25 11:38 44.66393 -3.66344 36180 ft 446 kts 33°
2026-04-25 11:38 44.71496 -3.61366 36174 ft 447 kts 33°
2026-04-25 11:39 44.76601 -3.56376 36174 ft 447 kts 33°
2026-04-25 11:39 44.81706 -3.51375 36174 ft 447 kts 33°
2026-04-25 11:40 44.86811 -3.46363 36171 ft 447 kts 33°
2026-04-25 11:40 44.91908 -3.41347 36166 ft 447 kts 33°
2026-04-25 11:41 44.97004 -3.36321 36177 ft 447 kts 33°
2026-04-25 11:41 45.02099 -3.31285 36166 ft 447 kts 33°
2026-04-25 11:42 45.07190 -3.26242 36163 ft 447 kts 33°
2026-04-25 11:42 45.12278 -3.21190 36161 ft 447 kts 33°
2026-04-25 11:43 45.17361 -3.16133 36167 ft 446 kts 33°
2026-04-25 11:43 45.22441 -3.11066 36145 ft 446 kts 33°
2026-04-25 11:44 45.27510 -3.06000 36141 ft 446 kts 33°
2026-04-25 11:44 45.32586 -3.00913 36161 ft 446 kts 34°
2026-04-25 11:45 45.37629 -2.95741 36147 ft 447 kts 34°
2026-04-25 11:45 45.42662 -2.90528 36156 ft 448 kts 34°
2026-04-25 11:46 45.47701 -2.85307 36147 ft 448 kts 34°
2026-04-25 11:46 45.52744 -2.80077 36146 ft 449 kts 34°
2026-04-25 11:47 45.57791 -2.74834 36153 ft 449 kts 34°
2026-04-25 11:47 45.62838 -2.69583 36144 ft 449 kts 35°
2026-04-25 11:48 45.67856 -2.64346 36149 ft 450 kts 35°
2026-04-25 11:48 45.72946 -2.59021 36149 ft 451 kts 35°
2026-04-25 11:49 45.77981 -2.53744 36157 ft 452 kts 35°
2026-04-25 11:49 45.83058 -2.48409 36137 ft 453 kts 35°
2026-04-25 11:50 45.88179 -2.43015 36140 ft 453 kts 35°
2026-04-25 11:50 45.93264 -2.37647 36147 ft 454 kts 35°
2026-04-25 11:51 45.98350 -2.32266 36139 ft 454 kts 36°
2026-04-25 11:51 46.03439 -2.26869 36150 ft 455 kts 36°
2026-04-25 11:52 46.08773 -2.21958 36149 ft 456 kts 27°
2026-04-25 11:52 46.14391 -2.17701 36139 ft 457 kts 26°
2026-04-25 11:53 46.20002 -2.13482 36143 ft 458 kts 27°
2026-04-25 11:53 46.25639 -2.09153 36142 ft 459 kts 27°
2026-04-25 11:54 46.31269 -2.04770 36141 ft 460 kts 27°
2026-04-25 11:55 46.39713 -1.98160 36127 ft 460 kts 27°
2026-04-25 11:55 46.45346 -1.93739 36143 ft 460 kts 27°
2026-04-25 11:56 46.50973 -1.89315 36134 ft 460 kts 27°
2026-04-25 11:56 46.56600 -1.84881 36145 ft 460 kts 28°
2026-04-25 11:57 46.62223 -1.80440 36148 ft 460 kts 28°
2026-04-25 11:57 46.67854 -1.75980 36144 ft 461 kts 28°
2026-04-25 11:58 46.73480 -1.71515 36139 ft 461 kts 28°
2026-04-25 11:58 46.79108 -1.67037 36140 ft 460 kts 28°
2026-04-25 11:59 46.84726 -1.62556 36138 ft 460 kts 28°
2026-04-25 11:59 46.90345 -1.58064 36142 ft 460 kts 28°
2026-04-25 12:00 46.98763 -1.51314 36142 ft 460 kts 28°
2026-04-25 12:01 47.07182 -1.44539 36128 ft 460 kts 28°
2026-04-25 12:01 47.12797 -1.40006 36129 ft 461 kts 28°
2026-04-25 12:02 47.21227 -1.33180 36131 ft 461 kts 28°
2026-04-25 12:02 47.26852 -1.28612 36126 ft 462 kts 28°
2026-04-25 12:03 47.32473 -1.24035 36122 ft 462 kts 28°
2026-04-25 12:03 47.38095 -1.19446 36132 ft 462 kts 28°
2026-04-25 12:04 47.43719 -1.14845 36126 ft 462 kts 28°
2026-04-25 12:04 47.49345 -1.10231 36120 ft 462 kts 28°
2026-04-25 12:05 47.54967 -1.05607 36125 ft 462 kts 28°
2026-04-25 12:05 47.60591 -1.00971 36133 ft 462 kts 28°
2026-04-25 12:06 47.66210 -0.96328 36130 ft 463 kts 28°
2026-04-25 12:06 47.71756 -0.91499 36120 ft 463 kts 36°
2026-04-25 12:07 47.76341 -0.84738 36134 ft 463 kts 52°
2026-04-25 12:07 47.80207 -0.77094 36138 ft 462 kts 53°
2026-04-25 12:08 47.84064 -0.69435 36146 ft 462 kts 53°
2026-04-25 12:08 47.87955 -0.61811 36152 ft 462 kts 53°
2026-04-25 12:09 47.91823 -0.54258 36147 ft 462 kts 53°
2026-04-25 12:09 47.95711 -0.46645 36145 ft 461 kts 53°
2026-04-25 12:10 47.99590 -0.39022 36146 ft 461 kts 53°
2026-04-25 12:10 48.02836 -0.32627 36149 ft 461 kts 53°
2026-04-25 12:11 48.06658 -0.24937 36136 ft 461 kts 58°
2026-04-25 12:11 48.09539 -0.16423 36142 ft 459 kts 66°
2026-04-25 12:12 48.12191 -0.07725 36138 ft 459 kts 66°
2026-04-25 12:12 48.14860 0.00964 36141 ft 459 kts 66°
2026-04-25 12:13 48.17553 0.09638 36146 ft 459 kts 66°
2026-04-25 12:13 48.20269 0.18371 36147 ft 459 kts 66°
2026-04-25 12:14 48.22960 0.27053 36148 ft 459 kts 66°
2026-04-25 12:14 48.25647 0.35752 36144 ft 460 kts 66°
2026-04-25 12:15 48.28327 0.44465 36144 ft 460 kts 66°
2026-04-25 12:15 48.30999 0.53182 36143 ft 460 kts 66°
2026-04-25 12:16 48.33666 0.61912 36149 ft 460 kts 66°
2026-04-25 12:16 48.36328 0.70656 36146 ft 460 kts 66°
2026-04-25 12:17 48.38964 0.79346 36145 ft 460 kts 66°
2026-04-25 12:17 48.41628 0.88160 36140 ft 460 kts 66°
2026-04-25 12:18 48.44250 0.96866 36153 ft 459 kts 66°
2026-04-25 12:18 48.46901 1.05703 36148 ft 459 kts 66°
2026-04-25 12:19 48.50814 1.18798 36146 ft 459 kts 66°
2026-04-25 12:20 48.53426 1.27580 36152 ft 459 kts 66°
2026-04-25 12:20 48.56046 1.36422 36153 ft 458 kts 66°
2026-04-25 12:21 48.58641 1.45212 36149 ft 458 kts 66°
2026-04-25 12:21 48.61228 1.54004 36151 ft 458 kts 66°
2026-04-25 12:22 48.63811 1.62809 36150 ft 458 kts 66°
2026-04-25 12:22 48.66186 1.71740 36154 ft 458 kts 70°
2026-04-25 12:23 48.68326 1.80794 36160 ft 457 kts 70°
2026-04-25 12:23 48.70480 1.89860 36154 ft 457 kts 70°
2026-04-25 12:24 48.72654 1.98903 36160 ft 457 kts 70°
2026-04-25 12:24 48.74831 2.07963 36160 ft 457 kts 70°
2026-04-25 12:25 48.76740 2.17159 36162 ft 457 kts 75°
2026-04-25 12:25 48.78361 2.26475 36161 ft 458 kts 75°
2026-04-25 12:26 48.79988 2.35806 36159 ft 458 kts 75°
2026-04-25 12:26 48.81645 2.45134 36159 ft 458 kts 75°
2026-04-25 12:27 48.83307 2.54470 36159 ft 458 kts 75°
2026-04-25 12:27 48.84956 2.63789 36157 ft 458 kts 75°
2026-04-25 12:28 48.86601 2.73135 36159 ft 458 kts 75°
2026-04-25 12:28 48.88235 2.82481 36166 ft 458 kts 75°
2026-04-25 12:29 48.89861 2.91832 36172 ft 458 kts 75°
2026-04-25 12:29 48.91479 3.01188 36164 ft 458 kts 75°
2026-04-25 12:30 48.93090 3.10550 36173 ft 457 kts 75°
2026-04-25 12:30 48.94694 3.19912 36163 ft 457 kts 75°
2026-04-25 12:31 48.96288 3.29279 36170 ft 457 kts 75°
2026-04-25 12:31 48.97875 3.38650 36167 ft 457 kts 75°
2026-04-25 12:32 48.99454 3.48027 36170 ft 457 kts 75°
2026-04-25 12:32 49.01037 3.57480 36167 ft 457 kts 75°
2026-04-25 12:33 49.02605 3.66888 36248 ft 461 kts 75°
2026-04-25 12:33 49.03393 3.71638 36401 ft 463 kts 75°
2026-04-25 12:33 49.04178 3.76386 36683 ft 461 kts 75°
2026-04-25 12:33 49.04957 3.81108 36989 ft 459 kts 75°
2026-04-25 12:34 49.05731 3.85818 37178 ft 459 kts 75°
2026-04-25 12:34 49.07287 3.95312 37159 ft 461 kts 75°
2026-04-25 12:35 49.08828 4.04774 37148 ft 458 kts 75°
2026-04-25 12:35 49.10348 4.14159 37157 ft 454 kts 75°
2026-04-25 12:36 49.11854 4.23502 37162 ft 453 kts 75°
2026-04-25 12:36 49.13349 4.32828 37162 ft 452 kts 75°
2026-04-25 12:37 49.15279 4.41931 37180 ft 450 kts 66°
2026-04-25 12:37 49.17739 4.50744 37168 ft 452 kts 64°
2026-04-25 12:38 49.20220 4.59602 37174 ft 454 kts 65°
2026-04-25 12:38 49.22658 4.68543 37169 ft 457 kts 65°
2026-04-25 12:39 49.25079 4.77551 37172 ft 459 kts 66°
2026-04-25 12:39 49.27497 4.86603 37163 ft 460 kts 66°
2026-04-25 12:40 49.29917 4.95692 37164 ft 461 kts 65°
2026-04-25 12:40 49.32335 5.04803 37155 ft 461 kts 65°
2026-04-25 12:41 49.34742 5.13910 37154 ft 460 kts 65°
2026-04-25 12:41 49.37135 5.22999 37155 ft 459 kts 66°
2026-04-25 12:42 49.39528 5.32122 37151 ft 457 kts 66°
2026-04-25 12:42 49.41892 5.41170 37157 ft 456 kts 66°
2026-04-25 12:43 49.44244 5.50209 37149 ft 455 kts 66°
2026-04-25 12:43 49.47746 5.63739 37140 ft 453 kts 66°
2026-04-25 12:44 49.50068 5.72745 37142 ft 452 kts 66°
2026-04-25 12:45 49.53494 5.84526 37155 ft 450 kts 59°
2026-04-25 12:45 49.57967 5.97245 37135 ft 450 kts 59°
2026-04-25 12:46 49.60922 6.05769 37139 ft 452 kts 59°
2026-04-25 12:46 49.63845 6.14355 37132 ft 452 kts 60°
2026-04-25 12:47 49.66751 6.22967 37132 ft 453 kts 60°
2026-04-25 12:47 49.69653 6.31603 37131 ft 453 kts 60°
2026-04-25 12:48 49.72575 6.40324 37131 ft 454 kts 60°
2026-04-25 12:48 49.75473 6.48999 37127 ft 455 kts 60°
2026-04-25 12:49 49.78370 6.57702 37126 ft 455 kts 60°
2026-04-25 12:49 49.81242 6.66356 37111 ft 455 kts 60°
2026-04-25 12:50 49.84128 6.75086 37115 ft 455 kts 60°
2026-04-25 12:50 49.87025 6.83881 37124 ft 455 kts 60°
2026-04-25 12:51 49.89878 6.92568 37126 ft 455 kts 60°
2026-04-25 12:51 49.92742 7.01322 37155 ft 454 kts 60°
2026-04-25 12:52 49.95596 7.10073 37157 ft 454 kts 60°
2026-04-25 12:52 49.98439 7.18825 37169 ft 454 kts 60°
2026-04-25 12:53 50.01276 7.27587 37163 ft 453 kts 60°
2026-04-25 12:53 50.04104 7.36349 37155 ft 453 kts 60°
2026-04-25 12:54 50.06923 7.45118 37152 ft 453 kts 60°
2026-04-25 12:54 50.09737 7.53899 37129 ft 453 kts 60°
2026-04-25 12:55 50.12085 7.61253 37134 ft 453 kts 60°
2026-04-25 12:55 50.15355 7.71529 37137 ft 453 kts 60°
2026-04-25 12:56 50.18147 7.80334 37139 ft 453 kts 60°
2026-04-25 12:56 50.20933 7.89156 37138 ft 453 kts 60°
2026-04-25 12:57 50.23713 7.97987 37128 ft 453 kts 60°
2026-04-25 12:57 50.26486 8.06829 37126 ft 453 kts 60°
2026-04-25 12:58 50.29255 8.15690 37117 ft 453 kts 60°
2026-04-25 12:58 50.32012 8.24545 37119 ft 453 kts 60°
2026-04-25 12:59 50.34764 8.33412 37121 ft 453 kts 60°
2026-04-25 12:59 50.37511 8.42300 37122 ft 453 kts 60°
2026-04-25 13:00 50.39791 8.49699 37106 ft 454 kts 60°
2026-04-25 13:00 50.42995 8.60134 37109 ft 455 kts 60°
2026-04-25 13:01 50.45731 8.69081 37098 ft 455 kts 60°
2026-04-25 13:01 50.48461 8.78041 37106 ft 455 kts 60°
2026-04-25 13:02 50.51187 8.87022 37105 ft 456 kts 60°
2026-04-25 13:02 50.53907 8.96019 37120 ft 456 kts 60°
2026-04-25 13:03 50.56624 9.05033 37103 ft 457 kts 60°
2026-04-25 13:03 50.59338 9.14076 37105 ft 457 kts 61°
2026-04-25 13:04 50.62047 9.23136 37101 ft 458 kts 61°
2026-04-25 13:04 50.64752 9.32216 37100 ft 458 kts 61°
2026-04-25 13:05 50.67446 9.41294 37104 ft 458 kts 61°
2026-04-25 13:05 50.70138 9.50394 37099 ft 458 kts 61°
2026-04-25 13:06 50.72820 9.59508 37101 ft 458 kts 62°
2026-04-25 13:06 50.75089 9.68932 37107 ft 460 kts 67°
2026-04-25 13:07 50.77109 9.78523 37098 ft 460 kts 68°
2026-04-25 13:07 50.79127 9.88101 37108 ft 460 kts 68°
2026-04-25 13:08 50.81180 9.97677 37101 ft 460 kts 67°
2026-04-25 13:08 50.83245 10.07245 37104 ft 459 kts 67°
2026-04-25 13:09 50.85303 10.16812 37093 ft 459 kts 68°
2026-04-25 13:09 50.87353 10.26389 37082 ft 459 kts 68°
2026-04-25 13:10 50.89063 10.34417 37098 ft 460 kts 67°
2026-04-25 13:10 50.91445 10.45654 37094 ft 460 kts 67°
2026-04-25 13:11 50.93463 10.55221 37083 ft 461 kts 67°
2026-04-25 13:11 50.95499 10.64925 37081 ft 461 kts 68°
2026-04-25 13:12 50.97513 10.74569 37077 ft 461 kts 68°
2026-04-25 13:12 50.99182 10.82595 37076 ft 461 kts 68°
2026-04-25 13:13 51.01519 10.93889 37093 ft 461 kts 68°
2026-04-25 13:13 51.03513 11.03573 37077 ft 461 kts 68°
2026-04-25 13:14 51.05499 11.13268 37086 ft 462 kts 68°
2026-04-25 13:14 51.07479 11.22984 37080 ft 462 kts 68°
2026-04-25 13:15 51.09454 11.32717 37059 ft 463 kts 68°
2026-04-25 13:15 51.11420 11.42460 37067 ft 463 kts 68°
2026-04-25 13:16 51.13381 11.52226 37064 ft 463 kts 68°
2026-04-25 13:16 51.15335 11.62000 37054 ft 464 kts 68°
2026-04-25 13:17 51.17294 11.71855 37042 ft 464 kts 68°
2026-04-25 13:17 51.19232 11.81655 37049 ft 464 kts 68°
2026-04-25 13:18 51.21165 11.91476 37061 ft 464 kts 68°
2026-04-25 13:18 51.23092 12.01316 37055 ft 465 kts 68°
2026-04-25 13:19 51.25012 12.11169 37044 ft 465 kts 68°
2026-04-25 13:19 51.26290 12.17763 37045 ft 465 kts 68°
2026-04-25 13:20 51.28505 12.29236 37041 ft 465 kts 68°
2026-04-25 13:20 51.30404 12.39127 37038 ft 466 kts 69°
2026-04-25 13:21 51.32295 12.49027 37036 ft 466 kts 69°
2026-04-25 13:21 51.34179 12.58942 37043 ft 466 kts 69°
2026-04-25 13:22 51.36056 12.68878 37063 ft 467 kts 69°
2026-04-25 13:23 51.38864 12.83833 37032 ft 468 kts 69°
2026-04-25 13:23 51.40727 12.93829 37029 ft 469 kts 69°
2026-04-25 13:24 51.42584 13.03840 37021 ft 469 kts 69°
2026-04-25 13:24 51.44435 13.13870 37027 ft 470 kts 69°
2026-04-25 13:25 51.46280 13.23932 37018 ft 471 kts 69°
2026-04-25 13:25 51.48153 13.34197 37022 ft 471 kts 69°
2026-04-25 13:26 51.49976 13.44243 37013 ft 471 kts 69°
2026-04-25 13:26 51.51799 13.54346 37016 ft 472 kts 69°
2026-04-25 13:27 51.53631 13.64554 37010 ft 473 kts 70°
2026-04-25 13:27 51.55443 13.74711 37009 ft 473 kts 70°
2026-04-25 13:28 51.57261 13.84959 36999 ft 474 kts 70°
2026-04-25 13:28 51.59057 13.95145 37001 ft 474 kts 70°
2026-04-25 13:29 51.60845 14.05339 36992 ft 474 kts 70°
2026-04-25 13:29 51.62639 14.15629 36991 ft 474 kts 70°
2026-04-25 13:30 51.65304 14.31021 37017 ft 474 kts 70°
2026-04-25 13:31 51.67953 14.46457 36980 ft 474 kts 70°
2026-04-25 13:31 51.69700 14.56709 36985 ft 474 kts 70°
2026-04-25 13:32 51.71438 14.66963 36981 ft 474 kts 70°
2026-04-25 13:32 51.73232 14.77324 36971 ft 473 kts 70°
2026-04-25 13:33 51.75047 14.87551 36972 ft 473 kts 70°
2026-04-25 13:33 51.76859 14.97821 36977 ft 473 kts 70°
2026-04-25 13:34 51.78655 15.08110 36973 ft 473 kts 70°
2026-04-25 13:34 51.80430 15.18355 36960 ft 474 kts 70°
2026-04-25 13:35 51.82208 15.28688 36964 ft 474 kts 70°
2026-04-25 13:35 51.83968 15.38972 36961 ft 474 kts 70°
2026-04-25 13:36 51.85718 15.49261 36957 ft 475 kts 70°
2026-04-25 13:36 51.87460 15.59561 36951 ft 475 kts 70°
2026-04-25 13:37 51.89206 15.69947 36954 ft 475 kts 70°
2026-04-25 13:37 51.90935 15.80287 36948 ft 476 kts 71°
2026-04-25 13:38 51.92376 15.88958 36941 ft 476 kts 71°
2026-04-25 13:38 51.94091 15.99334 36945 ft 478 kts 71°
2026-04-25 13:39 51.95801 16.09744 36938 ft 478 kts 71°
2026-04-25 13:39 51.97502 16.20167 36934 ft 478 kts 71°
2026-04-25 13:40 51.99196 16.30610 36933 ft 478 kts 71°
2026-04-25 13:40 52.00883 16.41068 36561 ft 481 kts 71°
2026-04-25 13:40 52.01719 16.46284 36246 ft 474 kts 71°
2026-04-25 13:41 52.02544 16.51453 35859 ft 470 kts 71°
2026-04-25 13:41 52.03359 16.56572 35473 ft 467 kts 71°
2026-04-25 13:41 52.04168 16.61662 35097 ft 463 kts 71°
2026-04-25 13:41 52.04968 16.66711 34716 ft 460 kts 71°
2026-04-25 13:42 52.05760 16.71722 34340 ft 458 kts 71°
2026-04-25 13:42 52.06550 16.76731 33976 ft 456 kts 71°
2026-04-25 13:42 52.07331 16.81701 33537 ft 453 kts 71°
2026-04-25 13:42 52.08106 16.86651 33133 ft 450 kts 71°
2026-04-25 13:43 52.08874 16.91567 32751 ft 447 kts 71°
2026-04-25 13:43 52.09633 16.96443 32374 ft 444 kts 71°
2026-04-25 13:43 52.10385 17.01289 32009 ft 441 kts 71°
2026-04-25 13:43 52.11131 17.06111 31652 ft 438 kts 71°
2026-04-25 13:44 52.11868 17.10889 31295 ft 435 kts 71°
2026-04-25 13:44 52.12600 17.15648 30946 ft 432 kts 71°
2026-04-25 13:44 52.13325 17.20374 30610 ft 429 kts 71°
2026-04-25 13:44 52.14045 17.25078 30255 ft 427 kts 71°
2026-04-25 13:45 52.14759 17.29763 29902 ft 425 kts 72°
2026-04-25 13:45 52.15467 17.34421 29516 ft 422 kts 72°
2026-04-25 13:45 52.16168 17.39042 29127 ft 419 kts 72°
2026-04-25 13:45 52.16860 17.43624 28754 ft 415 kts 72°
2026-04-25 13:46 52.17546 17.48179 28399 ft 412 kts 72°
2026-04-25 13:46 52.18224 17.52687 28040 ft 409 kts 72°
2026-04-25 13:46 52.18897 17.57174 27695 ft 406 kts 72°
2026-04-25 13:46 52.19563 17.61634 27336 ft 404 kts 72°
2026-04-25 13:47 52.20225 17.66069 26990 ft 401 kts 72°
2026-04-25 13:47 52.20879 17.70471 26651 ft 399 kts 72°
2026-04-25 13:47 52.21529 17.74857 26306 ft 397 kts 72°
2026-04-25 13:47 52.22173 17.79213 25974 ft 395 kts 72°
2026-04-25 13:48 52.22813 17.83553 25630 ft 393 kts 72°
2026-04-25 13:48 52.23449 17.87876 25303 ft 391 kts 72°
2026-04-25 13:48 52.24081 17.92176 24971 ft 389 kts 72°
2026-04-25 13:48 52.24707 17.96462 24642 ft 387 kts 72°
2026-04-25 13:49 52.25308 18.00743 24313 ft 387 kts 75°
2026-04-25 13:49 52.25751 18.05073 23989 ft 387 kts 78°
2026-04-25 13:49 52.26108 18.09427 23663 ft 387 kts 79°
2026-04-25 13:49 52.26439 18.13784 23303 ft 386 kts 79°
2026-04-25 13:50 52.26770 18.18188 22923 ft 385 kts 79°
2026-04-25 13:50 52.27101 18.22510 22573 ft 383 kts 79°
2026-04-25 13:50 52.27438 18.26817 22234 ft 381 kts 79°
2026-04-25 13:50 52.27776 18.31093 21905 ft 379 kts 79°
2026-04-25 13:51 52.28115 18.35346 21582 ft 377 kts 79°
2026-04-25 13:51 52.28453 18.39574 21262 ft 375 kts 78°
2026-04-25 13:51 52.28788 18.43782 20957 ft 373 kts 79°
2026-04-25 13:51 52.29121 18.47978 20654 ft 372 kts 79°
2026-04-25 13:52 52.29457 18.52213 20313 ft 371 kts 79°
2026-04-25 13:52 52.29785 18.56379 19991 ft 370 kts 79°
2026-04-25 13:52 52.30111 18.60544 19674 ft 369 kts 79°
2026-04-25 13:52 52.30435 18.64699 19351 ft 368 kts 79°
2026-04-25 13:53 52.30756 18.68836 19042 ft 367 kts 79°
2026-04-25 13:53 52.31075 18.72966 18726 ft 366 kts 79°
2026-04-25 13:53 52.31392 18.77082 18412 ft 365 kts 79°
2026-04-25 13:53 52.31707 18.81202 18094 ft 365 kts 79°
2026-04-25 13:54 52.32021 18.85315 17720 ft 365 kts 79°
2026-04-25 13:54 52.32332 18.89422 17382 ft 363 kts 79°
2026-04-25 13:54 52.32641 18.93513 17060 ft 362 kts 79°
2026-04-25 13:54 52.32946 18.97583 16742 ft 360 kts 79°
2026-04-25 13:55 52.33249 19.01635 16425 ft 358 kts 79°
2026-04-25 13:55 52.33549 19.05672 16114 ft 357 kts 79°
2026-04-25 13:55 52.33847 19.09689 15819 ft 355 kts 78°
2026-04-25 13:55 52.34143 19.13697 15521 ft 354 kts 78°
2026-04-25 13:56 52.34436 19.17685 15223 ft 353 kts 78°
2026-04-25 13:56 52.34726 19.21658 14923 ft 351 kts 78°
2026-04-25 13:56 52.34988 19.25613 14668 ft 350 kts 81°
2026-04-25 13:56 52.35191 19.29578 14433 ft 350 kts 81°
2026-04-25 13:57 52.35376 19.33547 14193 ft 351 kts 81°
2026-04-25 13:57 52.35498 19.36185 14040 ft 351 kts 81°
2026-04-25 13:57 52.35746 19.41515 13715 ft 351 kts 81°
2026-04-25 13:57 52.35934 19.45498 13454 ft 351 kts 81°
2026-04-25 13:58 52.36124 19.49477 13194 ft 350 kts 81°
2026-04-25 13:58 52.36313 19.53441 12942 ft 348 kts 81°
2026-04-25 13:58 52.36512 19.57378 12738 ft 345 kts 78°
2026-04-25 13:58 52.37024 19.61159 12435 ft 338 kts 68°
2026-04-25 13:59 52.37737 19.64784 12188 ft 332 kts 65°
2026-04-25 13:59 52.38487 19.68347 11948 ft 330 kts 65°
2026-04-25 13:59 52.39238 19.71939 11708 ft 328 kts 65°
2026-04-25 13:59 52.39961 19.75481 11475 ft 328 kts 65°
2026-04-25 14:00 52.40191 19.76630 11403 ft 327 kts 66°
2026-04-25 14:00 52.41358 19.82552 11017 ft 325 kts 66°
2026-04-25 14:00 52.42039 19.86076 10795 ft 324 kts 66°
2026-04-25 14:00 52.42712 19.89582 10573 ft 323 kts 67°
2026-04-25 14:01 52.43383 19.93091 10347 ft 322 kts 67°
2026-04-25 14:01 52.44047 19.96580 10124 ft 321 kts 67°
2026-04-25 14:01 52.44709 20.00068 9896 ft 320 kts 67°
2026-04-25 14:01 52.45368 20.03544 9662 ft 319 kts 67°
2026-04-25 14:02 52.46024 20.07017 9414 ft 318 kts 67°
2026-04-25 14:02 52.46675 20.10467 9178 ft 315 kts 67°
2026-04-25 14:02 52.47319 20.13890 8952 ft 313 kts 68°
2026-04-25 14:02 52.47535 20.15036 8876 ft 312 kts 68°
2026-04-25 14:03 52.48592 20.20660 8520 ft 309 kts 68°
2026-04-25 14:03 52.49215 20.23993 8428 ft 302 kts 67°
2026-04-25 14:03 52.49841 20.27338 8263 ft 304 kts 68°
2026-04-25 14:03 52.50379 20.30717 8054 ft 309 kts 75°
2026-04-25 14:04 52.50725 20.34210 7828 ft 310 kts 78°
2026-04-25 14:04 52.51023 20.37711 7603 ft 309 kts 78°
2026-04-25 14:04 52.51322 20.41195 7385 ft 307 kts 78°
2026-04-25 14:04 52.51629 20.44637 7172 ft 305 kts 77°
2026-04-25 14:05 52.51945 20.48083 6959 ft 303 kts 77°
2026-04-25 14:05 52.52265 20.51492 6747 ft 301 kts 77°
2026-04-25 14:05 52.52589 20.54923 6538 ft 300 kts 77°
2026-04-25 14:05 52.52904 20.58258 6331 ft 298 kts 77°
2026-04-25 14:06 52.53224 20.61658 6120 ft 297 kts 77°
2026-04-25 14:06 52.53537 20.64996 5880 ft 296 kts 77°
2026-04-25 14:06 52.53847 20.68324 5650 ft 294 kts 77°
2026-04-25 14:06 52.54159 20.71680 5435 ft 292 kts 78°
2026-04-25 14:07 52.54463 20.74967 5231 ft 290 kts 77°
2026-04-25 14:07 52.54766 20.78239 5017 ft 288 kts 77°
2026-04-25 14:07 52.55065 20.81486 4813 ft 286 kts 77°
2026-04-25 14:07 52.55264 20.83653 4691 ft 283 kts 77°
2026-04-25 14:08 52.55555 20.86839 4473 ft 280 kts 77°
2026-04-25 14:08 52.55709 20.90005 4252 ft 279 kts 96°
2026-04-25 14:08 52.55004 20.92915 4087 ft 265 kts 130°
2026-04-25 14:08 52.53665 20.94843 3892 ft 250 kts 155°
2026-04-25 14:09 52.52099 20.95817 3717 ft 234 kts 174°
2026-04-25 14:09 52.50539 20.96237 3563 ft 218 kts 184°
2026-04-25 14:09 52.49181 20.95736 3407 ft 187 kts 219°
2026-04-25 14:09 52.48528 20.94869 3300 ft 173 kts 233°
2026-04-25 14:10 52.47743 20.92771 3087 ft 158 kts 256°
2026-04-25 14:10 52.47521 20.91025 3048 ft 156 kts 262°
2026-04-25 14:10 52.47353 20.89271 3003 ft 154 kts 263°
2026-04-25 14:10 52.47193 20.87575 2995 ft 148 kts 263°
2026-04-25 14:11 52.47040 20.85921 2978 ft 148 kts 263°
2026-04-25 14:11 52.46881 20.84169 2692 ft 156 kts 263°
2026-04-25 14:11 52.46721 20.82422 2444 ft 154 kts 263°
2026-04-25 14:11 52.46565 20.80728 2198 ft 146 kts 262°
2026-04-25 14:12 52.46421 20.79160 1948 ft 134 kts 263°
2026-04-25 14:12 52.46292 20.77750 1824 ft 124 kts 263°
2026-04-25 14:12 52.46162 20.76353 1619 ft 124 kts 263°
2026-04-25 14:12 52.46033 20.74964 1416 ft 121 kts 262°
2026-04-25 14:13 52.45907 20.73595 1201 ft 119 kts 263°
2026-04-25 14:13 52.45788 20.72279 1012 ft 115 kts 263°
2026-04-25 14:13 52.45666 20.70988 820 ft 114 kts 261°
2026-04-25 14:13 52.45548 20.69706 682 ft 114 kts 260°
2026-04-25 14:14 52.45426 20.68374 534 ft 117 kts 260°
2026-04-25 14:14 52.45298 20.67053 374 ft 119 kts 259°
2026-04-25 14:14 52.45181 20.65805 334 ft 89 kts 261°
2026-04-25 14:14 52.45116 20.65124 338 ft 46 kts 262°
2026-04-25 14:15 52.45073 20.64668 337 ft 30 kts 261°
2026-04-25 14:15 52.45062 20.64556 335 ft 29 kts 260°
2026-04-25 14:15 52.44987 20.64388 338 ft 9 kts 181°
2026-04-25 14:15 52.44923 20.64384 334 ft 10 kts 182°
2026-04-25 14:16 52.44829 20.64378 337 ft 16 kts 182°
2026-04-25 14:16 52.44728 20.64373 336 ft 11 kts 169°
2026-04-25 14:16 52.44715 20.64465 337 ft 9 kts 83°
2026-04-25 14:16 52.44726 20.64562 335 ft 9 kts 80°
2026-04-25 14:17 52.44734 20.64663 337 ft 11 kts 81°
2026-04-25 14:17 52.44754 20.64846 335 ft 19 kts 82°
2026-04-25 14:17 52.44766 20.64988 333 ft 4 kts 82°
2026-04-25 14:17 52.44769 20.65028 335 ft 3 kts 89°
2026-04-25 14:18 52.44747 20.65038 333 ft 4 kts 196°
2026-04-25 14:18 52.44728 20.65023 335 ft 2 kts 205°
2026-04-25 14:18 52.44721 20.65018 336 ft 0 kts 205°